| time (UTC) | temp C | wind direction | speed KPH | gust KPH | rain 1hr cm | rain 24hr cm | rain mn cm | humidity % | barometer mb |
| 20260507073642 | 10 | 327 | 0.0 | 1.6 | 0.00 | 0.00 | 0.00 | 89 | 1011.5 |
| 20260507073152 | 9 | 327 | 0.0 | 1.6 | 0.00 | 0.00 | 0.00 | 89 | 1011.3 |
| 20260507072644 | 9 | 330 | 0.0 | 3.2 | 0.00 | 0.00 | 0.00 | 90 | 1011.4 |
| 20260507072153 | 9 | 330 | 0.0 | 3.2 | 0.00 | 0.00 | 0.00 | 90 | 1011.3 |
| 20260507071643 | 9 | 334 | 0.0 | 1.6 | 0.00 | 0.00 | 0.00 | 90 | 1011.3 |
| 20260507071155 | 9 | 334 | 0.0 | 1.6 | 0.00 | 0.00 | 0.00 | 90 | 1011.2 |
| 20260507070644 | 9 | 334 | 0.0 | 0.0 | 0.00 | 0.00 | 0.00 | 90 | 1011.3 |
| 20260507070156 | 9 | 334 | 0.0 | 0.0 | 0.00 | 0.00 | 0.00 | 90 | 1011.2 |
| 20260507065658 | 9 | 334 | 0.0 | 0.0 | 0.00 | 0.00 | 0.00 | 90 | 1011.2 |
| 20260507065149 | 9 | 334 | 0.0 | 1.6 | 0.00 | 0.00 | 0.00 | 90 | 1011.2 |
| 20260507064638 | 9 | 334 | 0.0 | 3.2 | 0.00 | 0.00 | 0.00 | 90 | 1011.2 |
| 20260507064150 | 9 | 334 | 0.0 | 3.2 | 0.00 | 0.00 | 0.00 | 90 | 1011.1 |
| 20260507063641 | 9 | 334 | 0.0 | 3.2 | 0.00 | 0.00 | 0.00 | 90 | 1011.1 |
| 20260507063151 | 9 | 334 | 0.0 | 3.2 | 0.00 | 0.00 | 0.00 | 90 | 1011.0 |
| 20260507062641 | 9 | 334 | 0.0 | 0.0 | 0.00 | 0.00 | 0.00 | 90 | 1011.0 |
| 20260507062151 | 8 | 334 | 0.0 | 0.0 | 0.00 | 0.00 | 0.00 | 90 | 1010.9 |
| 20260507061643 | 8 | 334 | 0.0 | 1.6 | 0.00 | 0.00 | 0.00 | 90 | 1010.8 |
| 20260507061153 | 8 | 334 | 0.0 | 1.6 | 0.00 | 0.00 | 0.00 | 91 | 1010.7 |
| 20260507060646 | 8 | 334 | 0.0 | 3.2 | 0.00 | 0.00 | 0.00 | 91 | 1010.5 |
| 20260507060157 | 8 | 334 | 0.0 | 3.2 | 0.00 | 0.00 | 0.00 | 91 | 1010.5 |
| 20260507055641 | 8 | 334 | 0.0 | 0.0 | 0.00 | 0.00 | 0.00 | 91 | 1010.4 |
| 20260507055156 | 8 | 334 | 0.0 | 4.8 | 0.00 | 0.00 | 0.00 | 91 | 1010.3 |
| 20260507054642 | 8 | 334 | 0.0 | 4.8 | 0.00 | 0.00 | 0.00 | 91 | 1010.2 |
| 20260507054153 | 8 | 335 | 0.0 | 3.2 | 0.00 | 0.00 | 0.00 | 91 | 1010.1 |
| 20260507053643 | 8 | 335 | 0.0 | 3.2 | 0.00 | 0.00 | 0.00 | 91 | 1010.1 |
| 20260507053154 | 8 | 335 | 0.0 | 0.0 | 0.00 | 0.00 | 0.00 | 91 | 1010.1 |
| 20260507052647 | 8 | 335 | 0.0 | 3.2 | 0.00 | 0.00 | 0.00 | 91 | 1010.0 |
| 20260507052156 | 8 | 335 | 0.0 | 1.6 | 0.00 | 0.00 | 0.00 | 91 | 1009.9 |
| 20260507051647 | 8 | 335 | 0.0 | 1.6 | 0.00 | 0.00 | 0.00 | 91 | 1009.9 |
| 20260507051156 | 8 | 335 | 0.0 | 3.2 | 0.00 | 0.00 | 0.00 | 91 | 1009.8 |
| 20260507050647 | 8 | 335 | 0.0 | 3.2 | 0.00 | 0.00 | 0.00 | 91 | 1009.7 |
| 20260507050158 | 8 | 335 | 0.0 | 0.0 | 0.00 | 0.00 | 0.00 | 91 | 1009.7 |
| 20260507045644 | 8 | 335 | 0.0 | 0.0 | 0.00 | 0.00 | 0.00 | 91 | 1009.6 |
| 20260507045153 | 8 | 335 | 0.0 | 1.6 | 0.00 | 0.00 | 0.00 | 91 | 1009.5 |
| 20260507044646 | 8 | 335 | 0.0 | 1.6 | 0.00 | 0.00 | 0.00 | 91 | 1009.5 |
| 20260507044154 | 8 | 335 | 0.0 | 1.6 | 0.00 | 0.00 | 0.00 | 91 | 1009.5 |
| 20260507043644 | 8 | 335 | 0.0 | 1.6 | 0.00 | 0.00 | 0.00 | 91 | 1009.4 |
| 20260507043156 | 8 | 335 | 0.0 | 1.6 | 0.00 | 0.00 | 0.00 | 91 | 1009.3 |
| 20260507042646 | 8 | 335 | 0.0 | 1.6 | 0.00 | 0.00 | 0.00 | 91 | 1009.3 |
| 20260507042156 | 8 | 335 | 0.0 | 1.6 | 0.00 | 0.00 | 0.00 | 91 | 1009.2 |
| 20260507041648 | 8 | 335 | 0.0 | 1.6 | 0.00 | 0.00 | 0.00 | 91 | 1009.1 |
| 20260507041141 | 8 | 335 | 0.0 | 0.0 | 0.00 | 0.00 | 0.00 | 91 | 1009.1 |
| 20260507040650 | 8 | 335 | 0.0 | 3.2 | 0.00 | 0.00 | 0.00 | 91 | 1009.1 |
| 20260507040201 | 8 | 335 | 0.0 | 3.2 | 0.00 | 0.00 | 0.00 | 91 | 1009.1 |
| 20260507035648 | 8 | 335 | 0.0 | 3.2 | 0.00 | 0.00 | 0.00 | 91 | 1009.0 |
| 20260507035158 | 8 | 335 | 0.0 | 0.0 | 0.00 | 0.00 | 0.00 | 91 | 1009.0 |
| 20260507034649 | 8 | 334 | 0.0 | 0.0 | 0.00 | 0.00 | 0.00 | 91 | 1009.0 |
| 20260507034139 | 8 | 335 | 0.0 | 1.6 | 0.00 | 0.00 | 0.00 | 91 | 1009.0 |
| 20260507033650 | 8 | 335 | 0.0 | 1.6 | 0.00 | 0.00 | 0.00 | 91 | 1009.0 |
| 20260507033141 | 8 | 335 | 0.0 | 1.6 | 0.00 | 0.00 | 0.00 | 91 | 1008.9 |
| 20260507032652 | 8 | 335 | 0.0 | 1.6 | 0.00 | 0.00 | 0.00 | 91 | 1008.9 |
| 20260507032143 | 8 | 335 | 0.0 | 1.6 | 0.00 | 0.00 | 0.00 | 91 | 1008.9 |
| 20260507031652 | 8 | 335 | 0.0 | 0.0 | 0.00 | 0.00 | 0.00 | 91 | 1008.9 |
| 20260507031144 | 8 | 335 | 0.0 | 0.0 | 0.00 | 0.00 | 0.00 | 91 | 1008.9 |
| 20260507030506 | 8 | 335 | 0.0 | 0.0 | 0.00 | 0.00 | 0.00 | 91 | 1008.9 |
| 20260507025648 | 8 | 335 | 0.0 | 0.0 | 0.00 | 0.00 | 0.00 | 91 | 1008.8 |
| 20260507025138 | 8 | 335 | 0.0 | 0.0 | 0.00 | 0.00 | 0.00 | 90 | 1008.8 |
| 20260507024649 | 8 | 335 | 0.0 | 0.0 | 0.00 | 0.00 | 0.00 | 90 | 1008.8 |
| 20260507024142 | 8 | 335 | 0.0 | 0.0 | 0.00 | 0.00 | 0.00 | 90 | 1008.8 |
| 20260507023649 | 8 | 335 | 0.0 | 0.0 | 0.00 | 0.00 | 0.00 | 90 | 1008.8 |
| 20260507023141 | 8 | 335 | 0.0 | 0.0 | 0.00 | 0.00 | 0.00 | 90 | 1008.7 |
| 20260507022651 | 8 | 335 | 0.0 | 0.0 | 0.00 | 0.00 | 0.00 | 90 | 1008.7 |
| 20260507022142 | 9 | 335 | 0.0 | 1.6 | 0.00 | 0.00 | 0.00 | 90 | 1008.7 |
| 20260507021650 | 9 | 335 | 0.0 | 0.0 | 0.00 | 0.00 | 0.00 | 90 | 1008.7 |
| 20260507021141 | 9 | 335 | 0.0 | 0.0 | 0.00 | 0.00 | 0.00 | 90 | 1008.7 |
| 20260507020503 | 9 | 335 | 0.0 | 1.6 | 0.00 | 0.00 | 0.00 | 90 | 1008.6 |
| 20260507015645 | 9 | 335 | 0.0 | 3.2 | 0.00 | 0.00 | 0.00 | 90 | 1008.5 |
| 20260507015141 | 9 | 335 | 0.0 | 3.2 | 0.00 | 0.00 | 0.00 | 89 | 1008.5 |
| 20260507014651 | 9 | 335 | 0.0 | 0.0 | 0.00 | 0.00 | 0.00 | 89 | 1008.4 |
| 20260507014140 | 9 | 335 | 0.0 | 0.0 | 0.00 | 0.00 | 0.00 | 89 | 1008.3 |
| 20260507013651 | 9 | 335 | 0.0 | 0.0 | 0.00 | 0.00 | 0.00 | 89 | 1008.3 |
| 20260507013143 | 9 | 335 | 0.0 | 0.0 | 0.00 | 0.00 | 0.00 | 89 | 1008.2 |
| 20260507012652 | 9 | 335 | 0.0 | 1.6 | 0.00 | 0.00 | 0.00 | 89 | 1008.2 |
| 20260507012144 | 9 | 335 | 0.0 | 1.6 | 0.00 | 0.00 | 0.00 | 89 | 1008.2 |
| 20260507011655 | 9 | 335 | 0.0 | 1.6 | 0.00 | 0.00 | 0.00 | 89 | 1008.2 |
| 20260507011144 | 9 | 335 | 0.0 | 1.6 | 0.00 | 0.00 | 0.00 | 89 | 1008.2 |
| 20260507010658 | 9 | 335 | 0.0 | 1.6 | 0.00 | 0.00 | 0.00 | 89 | 1008.1 |
| 20260507010145 | 9 | 335 | 0.0 | 1.6 | 0.00 | 0.00 | 0.00 | 88 | 1008.1 |
| 20260507005649 | 9 | 335 | 0.0 | 1.6 | 0.00 | 0.00 | 0.00 | 88 | 1008.2 |
| 20260507005139 | 9 | 335 | 0.0 | 0.0 | 0.00 | 0.00 | 0.00 | 88 | 1008.1 |
| 20260507004650 | 9 | 335 | 0.0 | 0.0 | 0.00 | 0.00 | 0.00 | 88 | 1008.1 |
| 20260507004142 | 9 | 335 | 0.0 | 3.2 | 0.00 | 0.00 | 0.00 | 88 | 1008.1 |
| 20260507003654 | 9 | 335 | 0.0 | 4.8 | 0.00 | 0.00 | 0.00 | 88 | 1008.1 |
| 20260507003143 | 9 | 335 | 0.0 | 1.6 | 0.00 | 0.00 | 0.00 | 88 | 1008.0 |
| 20260507002654 | 9 | 335 | 0.0 | 3.2 | 0.00 | 0.00 | 0.00 | 88 | 1008.0 |
| 20260507002144 | 9 | 335 | 0.0 | 3.2 | 0.00 | 0.00 | 0.00 | 88 | 1008.0 |
| 20260507001654 | 10 | 335 | 0.0 | 1.6 | 0.00 | 0.00 | 0.00 | 88 | 1008.0 |
| 20260507001145 | 10 | 335 | 0.0 | 1.6 | 0.00 | 0.00 | 0.00 | 88 | 1008.0 |
| 20260507000654 | 10 | 335 | 0.0 | 6.4 | 0.00 | 0.00 | 0.00 | 87 | 1008.0 |
| 20260507000145 | 10 | 335 | 0.0 | 6.4 | 0.00 | 0.00 | 0.00 | 87 | 1008.0 |
| 20260506235649 | 10 | 338 | 0.0 | 3.2 | 0.00 | 0.00 | 0.00 | 87 | 1008.0 |
| 20260506235140 | 10 | 338 | 0.0 | 1.6 | 0.00 | 0.00 | 0.00 | 87 | 1007.9 |
| 20260506234650 | 10 | 338 | 0.0 | 3.2 | 0.00 | 0.00 | 0.00 | 87 | 1007.9 |
| 20260506234144 | 10 | 338 | 0.0 | 3.2 | 0.00 | 0.00 | 0.00 | 87 | 1007.9 |
| 20260506233654 | 10 | 338 | 0.0 | 1.6 | 0.00 | 0.00 | 0.00 | 87 | 1007.8 |
| 20260506233144 | 10 | 338 | 0.0 | 3.2 | 0.00 | 0.00 | 0.00 | 87 | 1007.8 |
| 20260506232653 | 10 | 338 | 0.0 | 3.2 | 0.00 | 0.00 | 0.00 | 87 | 1007.8 |
| 20260506232144 | 10 | 338 | 0.0 | 3.2 | 0.00 | 0.00 | 0.00 | 87 | 1007.8 |
| 20260506231655 | 10 | 339 | 0.0 | 1.6 | 0.00 | 0.00 | 0.00 | 87 | 1007.7 |
| 20260506231145 | 10 | 341 | 0.0 | 1.6 | 0.00 | 0.00 | 0.00 | 87 | 1007.7 |
| 20260506230656 | 10 | 341 | 0.0 | 1.6 | 0.00 | 0.00 | 0.00 | 87 | 1007.7 |
| 20260506230145 | 10 | 341 | 0.0 | 1.6 | 0.00 | 0.00 | 0.00 | 87 | 1007.6 |
| 20260506225650 | 10 | 341 | 0.0 | 0.0 | 0.00 | 0.00 | 0.00 | 87 | 1007.6 |
| 20260506225141 | 10 | 341 | 0.0 | 1.6 | 0.00 | 0.00 | 0.00 | 87 | 1007.6 |
| 20260506224651 | 10 | 341 | 0.0 | 1.6 | 0.00 | 0.00 | 0.00 | 86 | 1007.5 |
| 20260506224140 | 10 | 342 | 0.0 | 1.6 | 0.00 | 0.00 | 0.00 | 86 | 1007.5 |
| 20260506223650 | 10 | 342 | 0.0 | 1.6 | 0.00 | 0.00 | 0.00 | 86 | 1007.5 |
| 20260506223141 | 10 | 341 | 0.0 | 1.6 | 0.00 | 0.00 | 0.00 | 86 | 1007.4 |
| 20260506222142 | 10 | 311 | 0.0 | 0.0 | 0.00 | 0.00 | 0.00 | 86 | 1007.3 |
| 20260506221652 | 10 | 310 | 0.0 | 1.6 | 0.00 | 0.00 | 0.00 | 86 | 1007.3 |
| 20260506221142 | 10 | 311 | 0.0 | 1.6 | 0.00 | 0.00 | 0.00 | 86 | 1007.3 |
| 20260506220506 | 10 | 311 | 0.0 | 1.6 | 0.00 | 0.00 | 0.00 | 86 | 1007.3 |
| 20260506215645 | 10 | 311 | 0.0 | 0.0 | 0.00 | 0.00 | 0.00 | 86 | 1007.3 |
| 20260506215156 | 10 | 311 | 0.0 | 1.6 | 0.00 | 0.00 | 0.00 | 86 | 1007.2 |
| 20260506214646 | 10 | 311 | 0.0 | 3.2 | 0.00 | 0.00 | 0.00 | 86 | 1007.2 |
| 20260506214156 | 10 | 311 | 0.0 | 3.2 | 0.00 | 0.00 | 0.00 | 86 | 1007.2 |
| 20260506213646 | 10 | 311 | 0.0 | 1.6 | 0.00 | 0.00 | 0.00 | 86 | 1007.2 |
| 20260506213157 | 10 | 311 | 0.0 | 3.2 | 0.00 | 0.00 | 0.00 | 86 | 1007.1 |
| 20260506212650 | 10 | 311 | 0.0 | 6.4 | 0.00 | 0.00 | 0.00 | 86 | 1007.0 |
| 20260506212140 | 10 | 311 | 0.0 | 6.4 | 0.00 | 0.00 | 0.00 | 86 | 1007.0 |
| 20260506211649 | 10 | 315 | 0.0 | 4.8 | 0.00 | 0.00 | 0.00 | 86 | 1007.0 |
| 20260506211141 | 10 | 317 | 0.0 | 3.2 | 0.00 | 0.00 | 0.00 | 86 | 1006.9 |
| 20260506210651 | 10 | 318 | 0.0 | 3.2 | 0.00 | 0.00 | 0.00 | 86 | 1007.0 |
| 20260506210159 | 10 | 319 | 0.0 | 3.2 | 0.00 | 0.00 | 0.00 | 86 | 1006.9 |
| 20260506205644 | 10 | 319 | 0.0 | 1.6 | 0.00 | 0.00 | 0.00 | 86 | 1006.9 |
| 20260506205154 | 10 | 319 | 0.0 | 3.2 | 0.00 | 0.00 | 0.00 | 87 | 1006.9 |
| 20260506204648 | 10 | 319 | 0.0 | 6.4 | 0.00 | 0.00 | 0.00 | 87 | 1006.7 |
| 20260506204141 | 10 | 24 | 0.0 | 1.6 | 0.00 | 0.00 | 0.00 | 87 | 1006.7 |
| 20260506203650 | 10 | 24 | 0.0 | 3.2 | 0.00 | 0.00 | 0.00 | 87 | 1006.7 |
| 20260506203141 | 10 | 24 | 0.0 | 3.2 | 0.00 | 0.00 | 0.00 | 87 | 1006.7 |
| 20260506202651 | 11 | 26 | 0.0 | 1.6 | 0.00 | 0.00 | 0.00 | 87 | 1006.6 |
| 20260506202141 | 11 | 27 | 0.0 | 1.6 | 0.00 | 0.00 | 0.00 | 87 | 1006.6 |
| 20260506201653 | 11 | 28 | 0.0 | 6.4 | 0.00 | 0.00 | 0.00 | 87 | 1006.5 |
| 20260506201147 | 11 | 28 | 0.0 | 6.4 | 0.00 | 0.00 | 0.00 | 87 | 1006.5 |
| 20260506200655 | 11 | 316 | 0.0 | 3.2 | 0.00 | 0.00 | 0.00 | 87 | 1006.4 |
| 20260506200145 | 11 | 316 | 0.0 | 3.2 | 0.00 | 0.00 | 0.00 | 87 | 1006.3 |
| 20260506195649 | 11 | 316 | 0.0 | 1.6 | 0.00 | 0.00 | 0.00 | 87 | 1006.2 |
| 20260506195157 | 11 | 317 | 0.0 | 3.2 | 0.00 | 0.00 | 0.00 | 87 | 1006.2 |
| 20260506194648 | 11 | 318 | 0.0 | 3.2 | 0.00 | 0.00 | 0.00 | 87 | 1006.2 |
| 20260506194139 | 11 | 318 | 0.0 | 1.6 | 0.00 | 0.00 | 0.00 | 88 | 1006.0 |
| 20260506193649 | 11 | 318 | 0.0 | 1.6 | 0.00 | 0.00 | 0.00 | 88 | 1005.9 |
| 20260506193140 | 11 | 320 | 0.0 | 4.8 | 0.00 | 0.00 | 0.00 | 88 | 1005.9 |
| 20260506192651 | 11 | 320 | 0.0 | 4.8 | 0.00 | 0.00 | 0.00 | 88 | 1005.9 |
| 20260506192141 | 11 | 320 | 0.0 | 1.6 | 0.00 | 0.00 | 0.00 | 88 | 1005.8 |
| 20260506191651 | 11 | 320 | 0.0 | 1.6 | 0.00 | 0.00 | 0.00 | 88 | 1005.7 |
| 20260506191142 | 11 | 320 | 0.0 | 1.6 | 0.00 | 0.00 | 0.00 | 88 | 1005.7 |
| 20260506190502 | 11 | 320 | 0.0 | 1.6 | 0.00 | 0.00 | 0.00 | 88 | 1005.7 |
| 20260506190203 | 11 | 320 | 0.0 | 1.6 | 0.00 | 0.00 | 0.00 | 87 | 1005.7 |
| 20260506185644 | 11 | 320 | 0.0 | 3.2 | 0.00 | 0.00 | 0.00 | 88 | 1005.6 |
| 20260506185155 | 11 | 320 | 0.0 | 3.2 | 0.00 | 0.00 | 0.00 | 87 | 1005.5 |
| 20260506184645 | 12 | 320 | 0.0 | 1.6 | 0.00 | 0.00 | 0.00 | 87 | 1005.5 |
| 20260506184141 | 12 | 320 | 0.0 | 1.6 | 0.00 | 0.00 | 0.00 | 87 | 1005.5 |
| 20260506183651 | 12 | 320 | 0.0 | 4.8 | 0.00 | 0.00 | 0.00 | 87 | 1005.4 |
| 20260506183142 | 12 | 320 | 0.0 | 4.8 | 0.00 | 0.00 | 0.00 | 87 | 1005.3 |
| 20260506182652 | 12 | 26 | 0.0 | 8.0 | 0.00 | 0.00 | 0.00 | 87 | 1005.1 |
| 20260506182141 | 12 | 26 | 0.0 | 8.0 | 0.00 | 0.00 | 0.00 | 87 | 1005.1 |
| 20260506181652 | 12 | 24 | 0.0 | 3.2 | 0.00 | 0.00 | 0.00 | 87 | 1005.0 |
| 20260506181142 | 12 | 24 | 0.0 | 3.2 | 0.00 | 0.00 | 0.00 | 87 | 1005.0 |
| 20260506180503 | 12 | 24 | 0.0 | 8.0 | 0.00 | 0.00 | 0.00 | 86 | 1004.9 |
| 20260506175650 | 12 | 321 | 0.0 | 3.2 | 0.00 | 0.00 | 0.00 | 86 | 1004.7 |
| 20260506175156 | 13 | 321 | 0.0 | 3.2 | 0.00 | 0.00 | 0.00 | 86 | 1004.7 |
| 20260506174647 | 13 | 318 | 0.0 | 3.2 | 0.00 | 0.00 | 0.00 | 86 | 1004.7 |
| 20260506174201 | 13 | 318 | 0.0 | 3.2 | 0.00 | 0.00 | 0.00 | 86 | 1004.6 |
| 20260506173648 | 13 | 318 | 0.0 | 6.4 | 0.00 | 0.00 | 0.00 | 86 | 1004.5 |
| 20260506173141 | 13 | 318 | 0.0 | 6.4 | 0.00 | 0.00 | 0.00 | 85 | 1004.5 |
| 20260506172649 | 13 | 265 | 0.0 | 6.4 | 0.00 | 0.00 | 0.00 | 85 | 1004.4 |
| 20260506172141 | 13 | 265 | 0.0 | 6.4 | 0.00 | 0.00 | 0.00 | 85 | 1004.4 |
| 20260506171651 | 13 | 263 | 0.0 | 6.4 | 0.00 | 0.00 | 0.00 | 85 | 1004.3 |
| 20260506171144 | 13 | 263 | 0.0 | 6.4 | 0.00 | 0.00 | 0.00 | 84 | 1004.2 |
| 20260506170505 | 13 | 263 | 0.0 | 6.4 | 0.00 | 0.00 | 0.00 | 84 | 1004.1 |
| 20260506165647 | 14 | 261 | 1.6 | 12.9 | 0.00 | 0.00 | 0.00 | 83 | 1004.1 |
| 20260506165156 | 14 | 239 | 0.0 | 12.9 | 0.00 | 0.00 | 0.00 | 83 | 1004.0 |
| 20260506164645 | 14 | 276 | 1.6 | 4.8 | 0.00 | 0.00 | 0.00 | 83 | 1004.0 |
| 20260506164155 | 14 | 276 | 0.0 | 4.8 | 0.00 | 0.00 | 0.00 | 83 | 1004.0 |
| 20260506163644 | 14 | 277 | 0.0 | 4.8 | 0.00 | 0.00 | 0.00 | 83 | 1004.0 |
| 20260506163157 | 15 | 277 | 0.0 | 8.0 | 0.00 | 0.00 | 0.00 | 83 | 1004.0 |
| 20260506162647 | 15 | 279 | 1.6 | 8.0 | 0.00 | 0.00 | 0.00 | 83 | 1003.9 |
| 20260506162200 | 15 | 246 | 1.6 | 8.0 | 0.00 | 0.00 | 0.00 | 83 | 1003.9 |
| 20260506161646 | 15 | 229 | 0.0 | 8.0 | 0.00 | 0.00 | 0.00 | 83 | 1003.9 |
| 20260506161156 | 15 | 227 | 0.0 | 8.0 | 0.00 | 0.00 | 0.00 | 83 | 1003.8 |
| 20260506160648 | 15 | 227 | 0.0 | 4.8 | 0.00 | 0.00 | 0.00 | 83 | 1003.8 |
| 20260506160159 | 15 | 227 | 0.0 | 4.8 | 0.00 | 0.00 | 0.00 | 83 | 1003.8 |
| 20260506155643 | 15 | 227 | 0.0 | 1.6 | 0.00 | 0.00 | 0.00 | 83 | 1003.8 |
| 20260506155153 | 15 | 227 | 0.0 | 1.6 | 0.00 | 0.00 | 0.00 | 83 | 1003.8 |
| 20260506154644 | 15 | 227 | 0.0 | 3.2 | 0.00 | 0.00 | 0.00 | 83 | 1003.8 |
| 20260506154156 | 15 | 227 | 0.0 | 4.8 | 0.00 | 0.00 | 0.00 | 83 | 1003.7 |
| 20260506153644 | 15 | 227 | 0.0 | 6.4 | 0.00 | 0.00 | 0.00 | 83 | 1003.8 |
| 20260506153155 | 15 | 226 | 0.0 | 9.7 | 0.00 | 0.00 | 0.00 | 83 | 1003.7 |
| 20260506152646 | 15 | 229 | 3.2 | 8.0 | 0.00 | 0.00 | 0.00 | 83 | 1003.7 |
| 20260506152154 | 15 | 232 | 0.0 | 6.4 | 0.00 | 0.00 | 0.00 | 82 | 1003.7 |
| 20260506151645 | 16 | 232 | 1.6 | 9.7 | 0.00 | 0.00 | 0.00 | 82 | 1003.7 |
| 20260506151157 | 16 | 231 | 1.6 | 8.0 | 0.00 | 0.00 | 0.00 | 82 | 1003.6 |
| 20260506150646 | 16 | 282 | 0.0 | 6.4 | 0.00 | 0.00 | 0.00 | 82 | 1003.6 |
| 20260506150156 | 16 | 282 | 1.6 | 8.0 | 0.00 | 0.00 | 0.00 | 83 | 1003.5 |
| 20260506145639 | 15 | 238 | 0.0 | 8.0 | 0.00 | 0.00 | 0.00 | 83 | 1003.5 |
| 20260506145149 | 15 | 239 | 0.0 | 6.4 | 0.00 | 0.00 | 0.00 | 83 | 1003.4 |
| 20260506144641 | 15 | 240 | 0.0 | 8.0 | 0.00 | 0.00 | 0.00 | 83 | 1003.5 |
| 20260506144154 | 15 | 240 | 0.0 | 11.3 | 0.00 | 0.00 | 0.00 | 83 | 1003.5 |
| 20260506143644 | 15 | 238 | 1.6 | 11.3 | 0.00 | 0.00 | 0.00 | 83 | 1003.5 |
| 20260506143155 | 15 | 269 | 0.0 | 4.8 | 0.00 | 0.00 | 0.00 | 83 | 1003.4 |
| 20260506142646 | 15 | 269 | 0.0 | 4.8 | 0.00 | 0.00 | 0.00 | 82 | 1003.4 |
| 20260506142140 | 15 | 267 | 0.0 | 11.3 | 0.00 | 0.00 | 0.00 | 81 | 1003.5 |
| 20260506141650 | 16 | 267 | 1.6 | 11.3 | 0.00 | 0.00 | 0.00 | 79 | 1003.5 |
| 20260506141139 | 16 | 265 | 1.6 | 11.3 | 0.00 | 0.00 | 0.00 | 76 | 1003.4 |
| 20260506140652 | 16 | 223 | 4.8 | 11.3 | 0.00 | 0.00 | 0.00 | 75 | 1003.4 |
| 20260506140200 | 16 | 240 | 0.0 | 11.3 | 0.00 | 0.00 | 0.00 | 75 | 1003.4 |
| 20260506135648 | 16 | 240 | 0.0 | 6.4 | 0.00 | 0.00 | 0.00 | 75 | 1003.4 |
| 20260506135154 | 16 | 240 | 0.0 | 4.8 | 0.00 | 0.00 | 0.00 | 75 | 1003.3 |
| 20260506134645 | 16 | 240 | 0.0 | 11.3 | 0.00 | 0.00 | 0.00 | 75 | 1003.4 |
| 20260506134156 | 16 | 240 | 1.6 | 11.3 | 0.00 | 0.00 | 0.00 | 75 | 1003.4 |
| 20260506133646 | 16 | 246 | 0.0 | 4.8 | 0.00 | 0.00 | 0.00 | 75 | 1003.3 |
| 20260506133158 | 16 | 248 | 0.0 | 8.0 | 0.00 | 0.00 | 0.00 | 74 | 1003.3 |
| 20260506132649 | 16 | 248 | 1.6 | 11.3 | 0.00 | 0.00 | 0.00 | 73 | 1003.4 |
| 20260506132158 | 16 | 221 | 3.2 | 11.3 | 0.00 | 0.00 | 0.00 | 73 | 1003.4 |
| 20260506131648 | 16 | 227 | 0.0 | 8.0 | 0.00 | 0.00 | 0.00 | 74 | 1003.3 |
| 20260506131141 | 16 | 221 | 1.6 | 8.0 | 0.00 | 0.00 | 0.00 | 73 | 1003.4 |
| 20260506130501 | 16 | 229 | 3.2 | 8.0 | 0.00 | 0.00 | 0.00 | 72 | 1003.4 |
| 20260506125643 | 17 | 233 | 0.0 | 8.0 | 0.00 | 0.00 | 0.00 | 70 | 1003.3 |
| 20260506125157 | 17 | 233 | 1.6 | 8.0 | 0.00 | 0.00 | 0.00 | 70 | 1003.3 |
| 20260506124645 | 17 | 221 | 0.0 | 1.6 | 0.00 | 0.00 | 0.00 | 72 | 1003.3 |
| 20260506124157 | 17 | 221 | 0.0 | 1.6 | 0.00 | 0.00 | 0.00 | 74 | 1003.3 |
| 20260506123646 | 17 | 223 | 0.0 | 4.8 | 0.00 | 0.00 | 0.00 | 74 | 1003.2 |
| 20260506123157 | 17 | 223 | 0.0 | 6.4 | 0.00 | 0.00 | 0.00 | 73 | 1003.3 |
| 20260506122648 | 17 | 223 | 1.6 | 6.4 | 0.00 | 0.00 | 0.00 | 74 | 1003.3 |
| 20260506122156 | 17 | 223 | 0.0 | 1.6 | 0.00 | 0.00 | 0.00 | 80 | 1003.3 |
| 20260506121647 | 16 | 223 | 0.0 | 1.6 | 0.00 | 0.00 | 0.00 | 80 | 1003.3 |
| 20260506121143 | 16 | 223 | 0.0 | 1.6 | 0.00 | 0.00 | 0.00 | 80 | 1003.3 |
| 20260506120504 | 15 | 223 | 0.0 | 1.6 | 0.00 | 0.00 | 0.00 | 80 | 1003.3 |
| 20260506115651 | 15 | 223 | 0.0 | 1.6 | 0.00 | 0.00 | 0.00 | 80 | 1003.3 |
| 20260506115159 | 15 | 223 | 0.0 | 4.8 | 0.00 | 0.00 | 0.00 | 79 | 1003.4 |
| 20260506114502 | 15 | 221 | 0.0 | 1.6 | 0.00 | 0.00 | 0.00 | 79 | 1003.4 |
| 20260506114158 | 15 | 221 | 0.0 | 1.6 | 0.00 | 0.00 | 0.00 | 78 | 1003.4 |
| 20260506113648 | 15 | 221 | 0.0 | 4.8 | 0.00 | 0.00 | 0.00 | 78 | 1003.4 |
| 20260506113139 | 15 | 221 | 0.0 | 4.8 | 0.00 | 0.00 | 0.00 | 78 | 1003.4 |
| 20260506112650 | 15 | 221 | 0.0 | 4.8 | 0.00 | 0.00 | 0.00 | 78 | 1003.4 |
| 20260506112142 | 15 | 221 | 0.0 | 3.2 | 0.00 | 0.00 | 0.00 | 78 | 1003.4 |
| 20260506111652 | 15 | 221 | 0.0 | 3.2 | 0.00 | 0.00 | 0.00 | 78 | 1003.4 |
| 20260506111145 | 15 | 221 | 0.0 | 6.4 | 0.00 | 0.00 | 0.00 | 79 | 1003.4 |
| 20260506110506 | 16 | 221 | 1.6 | 6.4 | 0.00 | 0.00 | 0.00 | 79 | 1003.4 |
| 20260506105647 | 15 | 217 | 0.0 | 4.8 | 0.00 | 0.00 | 0.00 | 80 | 1003.4 |
| 20260506105158 | 15 | 217 | 0.0 | 3.2 | 0.00 | 0.00 | 0.00 | 81 | 1003.4 |
| 20260506104501 | 15 | 217 | 0.0 | 3.2 | 0.00 | 0.00 | 0.00 | 83 | 1003.4 |
| 20260506104200 | 15 | 217 | 0.0 | 1.6 | 0.00 | 0.00 | 0.00 | 83 | 1003.3 |
| 20260506103649 | 15 | 217 | 0.0 | 3.2 | 0.00 | 0.00 | 0.00 | 83 | 1003.4 |
| 20260506103143 | 15 | 217 | 0.0 | 4.8 | 0.00 | 0.00 | 0.00 | 83 | 1003.4 |
| 20260506102652 | 15 | 217 | 0.0 | 4.8 | 0.00 | 0.00 | 0.00 | 82 | 1003.4 |
| 20260506102141 | 15 | 217 | 0.0 | 1.6 | 0.00 | 0.00 | 0.00 | 83 | 1003.4 |
| 20260506101652 | 15 | 217 | 0.0 | 1.6 | 0.00 | 0.00 | 0.00 | 83 | 1003.4 |
| 20260506101144 | 15 | 217 | 0.0 | 3.2 | 0.00 | 0.00 | 0.00 | 83 | 1003.4 |
| 20260506100654 | 15 | 217 | 0.0 | 9.7 | 0.00 | 0.00 | 0.00 | 83 | 1003.5 |
| 20260506100149 | 15 | 217 | 3.2 | 12.9 | 0.00 | 0.00 | 0.00 | 83 | 1003.5 |
| 20260506095655 | 15 | 213 | 1.6 | 12.9 | 0.00 | 0.00 | 0.00 | 84 | 1003.4 |
| 20260506095144 | 15 | 236 | 0.0 | 8.0 | 0.00 | 0.00 | 0.00 | 86 | 1003.4 |
| 20260506094655 | 15 | 238 | 0.0 | 8.0 | 0.00 | 0.00 | 0.00 | 86 | 1003.4 |
| 20260506094144 | 15 | 236 | 0.0 | 11.3 | 0.00 | 0.00 | 0.00 | 87 | 1003.5 |
| 20260506093654 | 15 | 237 | 1.6 | 11.3 | 0.00 | 0.00 | 0.00 | 88 | 1003.4 |
| 20260506093145 | 15 | 252 | 0.0 | 9.7 | 0.00 | 0.00 | 0.00 | 88 | 1003.5 |
| 20260506092658 | 14 | 273 | 0.0 | 4.8 | 0.00 | 0.00 | 0.00 | 89 | 1003.4 |
| 20260506092146 | 14 | 275 | 0.0 | 12.9 | 0.00 | 0.00 | 0.00 | 89 | 1003.4 |
| 20260506091657 | 13 | 224 | 1.6 | 12.9 | 0.00 | 0.00 | 0.00 | 89 | 1003.4 |
| 20260506091147 | 13 | 227 | 1.6 | 6.4 | 0.00 | 0.00 | 0.00 | 90 | 1003.4 |
| 20260506090658 | 13 | 227 | 0.0 | 8.0 | 0.00 | 0.00 | 0.00 | 90 | 1003.3 |
| 20260506090148 | 13 | 227 | 1.6 | 8.0 | 0.00 | 0.00 | 0.00 | 91 | 1003.4 |
| 20260506085144 | 13 | 227 | 0.0 | 6.4 | 0.00 | 0.00 | 0.00 | 91 | 1003.3 |
| 20260506084654 | 13 | 227 | 0.0 | 6.4 | 0.00 | 0.00 | 0.00 | 91 | 1003.4 |
| 20260506084145 | 13 | 227 | 1.6 | 6.4 | 0.00 | 0.00 | 0.00 | 92 | 1003.4 |
| 20260506083655 | 13 | 230 | 1.6 | 9.7 | 0.00 | 0.00 | 0.00 | 92 | 1003.3 |
| 20260506083144 | 13 | 246 | 1.6 | 11.3 | 0.00 | 0.00 | 0.00 | 92 | 1003.3 |
| 20260506082657 | 13 | 228 | 0.0 | 6.4 | 0.00 | 0.00 | 0.00 | 92 | 1003.2 |
| 20260506082146 | 13 | 223 | 0.0 | 6.4 | 0.00 | 0.00 | 0.00 | 92 | 1003.3 |
| 20260506081658 | 13 | 223 | 0.0 | 6.4 | 0.00 | 0.00 | 0.00 | 93 | 1003.2 |
| 20260506081147 | 13 | 223 | 0.0 | 6.4 | 0.00 | 0.00 | 0.00 | 93 | 1003.2 |
| 20260506080659 | 13 | 234 | 0.0 | 9.7 | 0.00 | 0.00 | 0.00 | 93 | 1003.2 |
| 20260506080148 | 13 | 222 | 1.6 | 8.0 | 0.00 | 0.00 | 0.00 | 93 | 1003.2 |